Temperature
21 20 21 21 21 21 20 20 21 21 19 16 15 14 12 9 11 10 9 10 11 10 11 13 13 13 14 14 14 15 15 15 15 15 15 15 15 15 15 15 15 15 15 16 16 16 16 16 16
22 21 21 22 21 19 19 20 19 20 19 16 14 13 11 9 8 8 10 10 11 10 11 12 12 13 13 14 14 14 14 14 14 14 15 15 15 15 15 15 15 15 15 15 16 16 16 16 16
22 21 22 20 19 18 18 19 19 18 18 16 13 10 9 8 8 9 10 10 10 10 10 11 12 12 13 13 13 14 14 14 14 14 14 14 14 14 14 14 15 15 15 15 15 16 16 16 16
21 22 23 19 17 17 18 18 19 19 17 16 14 11 8 8 9 9 10 10 10 10 10 11 12 12 13 13 13 13 13 13 14 14 14 14 14 14 14 14 14 14 14 14 15 15 15 15 16
22 23 20 17 17 17 17 17 17 17 17 15 13 11 9 9 10 10 10 10 10 10 10 11 11 12 12 12 12 12 13 13 13 13 13 13 13 13 13 13 14 14 14 14 14 14 14 14 15
24 24 20 17 17 16 15 15 16 14 14 14 14 12 10 10 10 10 10 9 9 9 10 10 11 11 11 11 11 12 12 12 12 12 13 13 13 13 13 13 13 13 13 14 14 14 14 14 15
24 21 19 18 17 16 15 15 13 13 12 12 13 12 10 10 10 10 9 9 8 9 10 10 10 11 11 11 11 11 11 11 11 11 12 12 12 12 12 12 13 13 13 13 13 13 14 14 14
24 22 20 19 17 15 14 13 12 12 11 11 11 11 9 9 9 9 9 8 8 8 9 9 10 10 10 10 10 10 10 10 10 10 11 11 12 12 12 12 12 12 12 12 12 13 13 13 14
24 20 18 18 17 15 15 13 12 11 10 10 10 9 9 8 8 8 8 8 8 8 8 8 9 9 9 9 8 8 8 8 8 8 8 9 10 10 11 12 12 12 12 12 11 12 12 13 13
21 17 16 17 17 16 15 14 13 12 11 10 9 9 8 8 7 7 7 7 7 7 7 7 7 7 7 7 7 7 6 6 6 6 5 5 6 7 8 10 10 11 11 11 11 12 12 12 12
19 16 15 15 15 14 13 13 13 11 9 9 9 8 7 7 6 6 5 5 5 5 6 6 6 6 6 6 5 5 4 4 4 4 4 4 4 5 6 7 8 9 10 10 11 12 11 11 11
17 16 15 14 14 13 12 11 9 10 9 8 8 8 7 6 6 5 4 4 5 5 6 6 6 5 4 4 4 3 3 3 2 2 2 2 2 3 4 5 5 6 6 7 9 10 11 11 11
16 15 14 13 12 11 11 10 9 9 9 8 8 7 7 6 5 4 4 4 5 4 4 4 3 3 2 2 2 2 2 1 1 1 1 1 0 0 1 2 3 3 3 5 6 7 8 9 10
15 14 13 13 12 12 11 10 10 9 9 9 8 7 6 6 5 4 4 3 3 3 2 2 2 2 2 1 1 0 0 0 0 0 0 -0 -1 -1 -1 -0 0 0 1 2 3 4 5 6 8
14 14 14 14 13 12 11 10 9 9 9 9 9 8 7 6 5 4 3 3 2 2 1 1 1 1 1 1 0 -0 -0 -0 -1 -1 -1 -1 -2 -2 -2 -2 -1 -1 -1 -0 1 2 3 4 5
16 15 15 15 14 13 13 10 10 9 9 9 9 8 7 6 5 4 3 2 1 1 0 -0 -0 0 0 -1 -1 -1 -1 -1 -1 -2 -2 -2 -3 -3 -3 -3 -3 -3 -2 -1 -1 -0 1 2 3
18 18 15 14 15 15 14 9 9 9 9 9 9 8 7 6 5 4 3 2 1 -0 -1 -1 -1 -1 -1 -2 -1 -2 -2 -2 -3 -3 -3 -3 -4 -4 -5 -5 -5 -4 -4 -3 -3 -2 -2 -1 1
19 21 18 14 14 15 12 9 9 9 9 9 8 7 7 6 5 4 3 2 1 -0 -1 -1 -2 -2 -2 -2 -2 -3 -3 -3 -4 -4 -4 -5 -5 -5 -5 -6 -6 -5 -5 -5 -5 -4 -4 -3 -2
20 20 18 14 13 14 11 9 9 9 9 8 7 7 7 6 5 4 3 1 -0 -1 -2 -2 -3 -3 -3 -4 -4 -4 -4 -4 -5 -5 -5 -5 -6 -6 -6 -6 -6 -6 -6 -6 -6 -5 -5 -4 -4
20 19 17 14 13 14 11 10 9 9 8 7 7 7 7 6 5 4 2 1 -1 -2 -3 -3 -4 -4 -5 -5 -6 -6 -6 -6 -6 -6 -6 -7 -7 -7 -7 -7 -7 -6 -6 -6 -6 -6 -5 -5 -5
19 16 15 15 12 13 12 10 8 9 8 7 7 7 6 5 4 3 2 0 -1 -3 -3 -4 -5 -5 -6 -6 -6 -6 -6 -6 -6 -7 -7 -7 -8 -8 -7 -8 -8 -8 -7 -7 -6 -6 -6 -5 -5
17 14 14 15 13 12 11 11 8 8 8 8 7 6 5 4 3 2 1 -1 -2 -3 -4 -5 -6 -6 -6 -7 -7 -8 -8 -8 -8 -8 -8 -8 -8 -8 -8 -8 -9 -9 -8 -8 -7 -7 -6 -6 -5
15 14 14 15 14 13 12 11 9 8 8 8 7 6 5 4 3 1 -0 -1 -3 -4 -5 -5 -6 -6 -7 -7 -8 -8 -9 -9 -9 -9 -8 -8 -8 -9 -9 -9 -9 -9 -9 -9 -8 -8 -7 -6 -6
15 15 14 14 13 13 15 13 11 8 7 6 6 6 5 3 2 0 -1 -2 -3 -4 -5 -6 -6 -7 -7 -7 -8 -9 -9 -9 -9 -9 -9 -9 -9 -9 -10 -10 -10 -10 -10 -10 -9 -9 -8 -7 -7
15 15 15 15 14 15 14 14 9 6 6 6 6 5 4 3 1 -0 -2 -3 -4 -5 -5 -6 -7 -7 -7 -8 -8 -9 -10 -10 -10 -10 -10 -10 -10 -10 -10 -11 -11 -11 -10 -10 -10 -9 -8 -8 -7
15 15 13 13 14 14 14 12 6 7 7 7 6 5 3 2 0 -1 -2 -3 -4 -5 -5 -6 -6 -7 -8 -8 -9 -9 -10 -10 -11 -11 -11 -11 -11 -11 -11 -11 -11 -11 -11 -11 -11 -10 -9 -8 -8
14 13 13 12 13 12 14 7 6 7 7 7 6 4 3 1 -0 -1 -2 -3 -4 -5 -6 -6 -7 -7 -8 -9 -9 -10 -10 -11 -11 -11 -11 -12 -12 -12 -12 -12 -12 -12 -12 -11 -11 -10 -9 -9 -8
14 13 12 12 11 11 12 13 7 6 7 6 5 4 2 1 -1 -2 -3 -4 -4 -5 -6 -7 -7 -8 -9 -9 -10 -10 -11 -11 -12 -12 -12 -12 -12 -12 -12 -12 -12 -12 -12 -12 -11 -10 -9 -9 -8
14 14 13 12 12 10 9 9 7 7 7 5 5 3 2 0 -1 -2 -3 -4 -5 -6 -6 -7 -8 -9 -9 -10 -10 -11 -11 -12 -12 -12 -12 -13 -13 -13 -13 -13 -13 -13 -12 -12 -11 -10 -9 -9 -8
12 12 12 11 11 11 10 8 7 7 7 6 4 3 1 -0 -1 -3 -4 -4 -5 -6 -7 -8 -8 -9 -10 -10 -11 -11 -12 -12 -12 -13 -13 -13 -13 -13 -13 -14 -14 -13 -13 -12 -11 -10 -9 -9 -8
Wind_Speed
18 17 5 2 0 9 18 17 16 11 9 19 16 14 14 12 10 7 6 14 20 15 16 24 28 30 30 30 30 30 30 29 28 28 27 25 22 19 17 15 15 16 15 14 13 13 13 12 12
13 11 4 2 7 12 14 15 18 20 15 12 14 15 13 11 7 5 9 16 20 14 14 23 26 27 29 30 30 30 30 29 29 28 28 26 25 23 20 17 16 16 16 15 15 15 14 13 12
11 9 1 6 14 12 9 12 14 21 21 11 8 11 8 7 6 6 9 17 15 15 16 23 26 26 28 30 30 30 30 29 29 29 28 27 26 25 23 21 19 17 16 15 15 16 15 14 13
5 2 5 12 20 17 14 13 11 12 14 15 11 10 7 3 2 6 10 12 13 17 20 23 27 28 28 29 30 29 29 29 29 29 29 28 26 25 25 24 22 20 18 17 16 16 15 14 14
4 5 11 13 14 12 14 15 17 18 9 14 14 9 6 4 1 3 7 13 12 16 22 24 28 30 30 29 30 29 29 29 28 28 30 29 27 25 24 23 24 24 22 20 18 17 15 15 15
3 5 11 12 14 13 13 16 16 17 15 13 10 10 7 8 8 8 10 13 18 19 23 26 29 31 31 30 29 30 29 30 30 28 29 29 27 26 26 25 25 24 24 23 20 18 17 17 16
9 10 11 12 10 8 9 9 15 14 13 12 9 8 6 10 10 10 10 14 19 22 23 26 28 29 31 31 30 31 29 28 29 28 29 30 28 26 26 27 27 27 26 25 23 20 19 18 17
3 7 12 9 8 6 9 9 9 12 10 10 12 8 7 10 11 11 10 11 14 20 23 26 28 28 29 29 30 31 30 29 30 29 29 28 27 27 26 27 28 28 28 27 25 23 21 20 18
5 9 10 7 7 9 10 9 9 10 13 15 15 13 11 10 10 11 12 12 14 16 19 23 26 26 27 27 27 28 27 27 28 28 29 26 23 23 24 27 28 29 30 29 27 28 25 22 19
9 6 8 10 12 12 13 11 9 9 15 14 12 12 11 11 11 12 14 15 16 17 15 21 23 24 25 25 24 24 24 25 25 25 26 24 23 22 24 26 26 28 28 28 29 31 27 22 17
7 8 9 13 16 15 14 12 12 10 10 11 10 11 11 12 12 14 14 13 13 13 14 17 22 23 23 22 21 21 21 22 23 24 25 24 22 22 22 21 22 23 23 22 24 24 23 22 18
8 13 11 11 11 11 10 7 10 13 8 9 10 10 10 12 13 13 12 12 12 12 14 15 23 23 23 23 21 21 20 20 21 22 24 22 19 19 20 19 20 20 18 18 19 18 21 22 23
12 11 14 15 15 16 16 13 11 10 9 8 9 10 11 11 11 11 12 12 13 14 14 12 22 22 23 21 20 20 21 21 23 22 22 22 19 16 19 19 20 20 19 19 16 15 15 15 17
12 16 14 13 12 10 13 11 7 7 7 6 8 9 10 10 12 11 12 13 14 14 15 13 19 23 24 20 18 18 20 21 21 21 21 23 23 21 20 17 18 18 21 20 17 15 12 10 12
17 13 11 9 9 10 10 10 7 6 5 5 7 8 9 10 10 10 10 11 12 13 14 13 19 24 24 21 20 20 21 22 19 19 21 23 23 23 22 17 15 19 23 22 18 16 13 11 13
9 8 7 7 8 8 5 6 6 4 4 5 6 8 8 9 10 10 10 10 11 12 13 12 19 20 22 21 20 20 21 22 20 19 19 22 24 23 21 16 15 22 23 20 13 12 13 13 12
8 6 8 6 4 5 4 7 6 3 2 3 6 7 7 8 10 9 9 10 11 12 13 13 14 16 20 20 20 20 20 21 21 20 18 21 21 23 21 18 17 20 17 15 13 14 13 14 14
4 4 7 8 2 1 5 8 6 3 0 3 7 8 7 7 8 8 9 10 11 11 12 12 12 17 20 18 18 15 16 18 20 19 20 22 22 23 20 18 20 20 13 11 12 14 13 12 14
6 7 8 6 2 0 7 8 7 6 2 6 7 6 7 7 8 9 10 10 10 10 12 13 13 14 14 11 11 11 11 11 13 18 21 22 22 23 20 17 18 18 12 13 15 15 15 13 12
5 7 5 6 5 2 6 7 8 6 5 4 3 4 7 9 9 10 10 9 10 10 11 12 12 13 13 11 11 9 9 9 13 18 20 21 22 21 20 18 14 16 12 12 14 15 11 11 11
5 6 5 3 5 3 4 7 10 8 6 5 2 7 9 10 10 10 10 10 10 10 11 14 12 12 14 18 14 12 7 9 9 10 8 19 22 21 18 18 18 15 11 11 14 14 14 11 10
4 5 6 4 4 6 8 4 9 10 8 6 5 9 9 9 9 10 10 10 9 9 9 10 11 9 13 16 11 13 12 12 13 11 9 18 22 21 18 17 18 16 13 12 14 14 14 12 11
5 3 6 6 5 4 8 5 6 9 7 5 8 8 7 8 10 10 10 9 8 9 8 9 10 9 11 13 10 10 10 10 10 11 12 10 17 20 20 19 17 15 12 11 12 15 15 12 11
9 7 7 5 4 5 4 5 4 3 5 6 6 6 7 9 10 9 9 9 8 9 8 9 10 10 9 10 9 10 11 11 13 13 12 11 9 13 18 21 19 17 13 12 13 13 16 14 13
8 7 2 3 4 2 2 2 5 7 7 3 5 7 8 9 9 9 9 9 9 9 9 9 10 11 11 10 10 10 10 10 11 11 11 12 11 10 8 19 18 16 16 17 17 13 15 14 14
7 7 4 5 6 5 4 2 6 8 5 2 6 7 9 9 8 8 9 8 8 9 10 10 10 11 11 10 10 8 8 8 7 10 10 10 10 9 15 19 19 19 19 19 16 11 14 14 14
6 6 3 4 6 6 2 7 5 4 3 5 6 8 9 9 8 8 8 8 8 9 9 10 10 11 11 11 11 10 8 9 9 9 9 7 10 16 20 19 17 19 19 18 15 12 15 15 14
3 3 3 4 6 6 9 1 4 5 3 6 7 8 9 8 8 8 8 8 8 7 8 9 9 10 10 11 11 13 9 9 10 9 11 8 13 18 17 15 14 16 17 17 13 14 15 17 16
1 3 2 4 4 3 6 3 6 5 2 6 7 8 8 8 8 8 8 8 7 7 8 8 8 9 9 10 10 11 11 10 11 8 9 11 13 15 14 14 13 15 16 14 15 17 18 19 16
4 4 3 3 4 3 5 2 7 5 6 8 7 7 8 8 8 8 8 8 8 8 8 8 8 9 9 10 10 11 11 9 11 11 11 16 14 15 16 16 14 17 17 16 17 18 18 19 15
Wind_Direction
309 299 259 227 178 67 61 49 44 64 77 59 57 66 74 58 46 65 319 312 322 333 8 7 17 22 22 22 23 22 20 18 16 14 8 2 353 345 338 336 333 329 327 326 326 326 320 310 303
304 297 296 277 85 76 57 58 48 42 93 88 57 56 63 62 43 6 315 315 324 345 28 16 16 21 21 21 21 20 18 17 16 13 9 5 2 357 350 343 338 331 325 323 321 317 313 306 297
276 269 296 43 62 66 54 35 79 59 50 65 72 50 51 37 16 335 300 308 331 5 30 24 17 18 20 20 19 17 15 14 13 12 9 6 3 3 1 354 348 340 329 322 319 312 307 305 298
281 249 75 77 73 53 49 30 25 83 55 55 83 70 70 39 313 283 294 335 7 16 20 22 18 16 16 17 15 14 13 12 10 10 7 5 4 5 5 2 357 350 341 328 317 311 304 304 301
223 81 85 88 81 65 45 41 49 57 63 62 77 87 81 22 237 316 2 21 21 17 16 15 15 13 11 11 10 8 8 8 7 8 6 2 0 2 3 2 2 355 347 338 325 314 308 306 304
247 96 96 95 98 86 61 39 58 60 50 36 85 99 70 28 18 30 32 27 25 19 16 12 12 10 7 4 7 4 3 5 2 3 4 1 359 359 360 0 358 353 348 343 332 317 308 303 300
70 88 105 110 102 76 56 54 44 56 47 18 19 87 71 28 18 25 40 31 28 23 17 13 10 8 4 359 1 0 359 2 359 359 1 359 358 358 357 358 354 352 349 344 338 324 309 301 297
14 100 98 92 87 89 77 69 54 46 52 34 32 65 58 27 26 22 31 32 25 24 17 15 7 6 3 355 358 357 355 358 357 356 358 359 357 356 355 355 351 350 348 343 339 336 321 307 297
47 73 55 48 98 116 112 98 83 83 81 72 66 70 61 37 29 28 26 23 21 19 14 13 6 3 2 356 356 354 352 355 354 352 353 356 355 355 353 351 350 350 347 345 347 344 337 322 301
40 69 55 47 84 98 91 84 100 80 69 70 67 59 50 48 36 29 27 19 15 12 9 9 4 360 2 357 354 352 350 351 350 349 348 354 355 355 353 348 349 349 346 349 347 343 340 336 320
57 91 90 66 80 89 83 62 66 100 67 60 58 55 42 40 40 32 28 21 13 7 6 6 1 358 2 356 353 350 348 348 346 347 349 355 356 353 351 347 345 343 345 349 346 343 336 329 323
88 86 100 100 93 91 89 86 66 71 88 80 68 56 50 41 38 34 23 17 11 8 6 4 1 357 359 355 353 351 347 347 345 347 352 358 358 351 349 344 340 339 343 345 344 335 329 329 324
91 89 85 87 84 87 91 91 95 94 96 89 78 64 53 48 38 34 22 17 10 6 3 2 358 358 356 355 356 350 347 349 346 346 352 5 359 350 348 339 338 337 345 344 334 327 329 329 324
109 113 114 117 115 112 107 108 95 106 111 100 86 72 63 52 45 29 22 15 9 4 3 0 357 360 355 354 354 349 349 346 344 345 353 10 360 351 345 337 337 340 344 336 330 329 328 326 326
122 120 129 140 126 139 124 90 97 121 125 94 81 77 69 59 53 35 23 18 9 4 2 1 357 359 354 349 353 352 350 343 342 347 353 8 359 352 344 339 338 345 342 336 336 330 333 332 330
155 151 142 146 149 179 249 112 123 140 110 78 63 65 53 54 48 37 22 22 13 7 2 2 358 356 351 348 355 351 348 343 341 346 354 1 352 349 344 339 343 345 341 339 338 340 340 332 327
190 208 127 135 178 202 214 120 145 153 130 82 63 53 41 43 43 33 20 29 20 12 360 357 357 357 351 350 353 346 346 343 340 344 356 356 349 346 344 335 341 341 338 340 337 336 335 332 330
6 16 114 117 70 164 95 122 138 156 210 59 52 36 20 31 40 31 22 34 23 13 1 356 358 356 351 352 348 343 345 341 339 344 351 351 349 344 342 335 337 338 335 337 332 328 333 333 331
0 8 74 108 111 152 134 142 149 173 155 46 29 5 358 25 27 31 29 32 19 10 5 355 357 353 351 353 345 343 342 337 334 344 346 347 346 342 340 339 338 335 333 333 331 331 330 332 331
3 359 65 133 146 200 155 160 155 168 99 65 317 344 9 19 15 21 22 27 16 10 6 353 356 352 351 351 342 341 333 328 332 342 339 341 341 341 341 343 340 337 332 329 330 328 326 329 338
37 40 355 339 141 222 198 190 171 157 147 195 241 36 23 17 14 10 14 19 12 13 8 353 350 351 350 348 343 341 329 332 336 337 334 338 340 336 342 343 337 333 332 329 328 327 329 327 327
36 24 316 273 198 207 182 242 166 167 188 191 70 43 26 21 16 13 16 14 9 14 7 353 346 346 347 346 343 342 339 336 333 332 329 335 336 332 338 341 338 335 333 328 327 331 324 323 323
325 314 282 274 236 262 190 243 155 156 183 104 51 32 24 25 24 19 16 9 9 15 6 351 341 342 344 344 340 337 333 329 327 328 330 331 331 331 337 339 336 332 329 328 326 325 321 318 313
287 251 226 246 239 263 191 195 147 137 97 53 27 18 29 28 28 20 11 5 10 11 1 346 342 344 343 341 336 336 331 330 330 333 332 330 327 331 336 337 333 328 328 329 324 322 318 315 310
342 336 293 274 231 224 105 248 100 96 85 57 16 23 36 31 29 15 6 6 7 360 355 348 346 343 342 339 337 333 329 328 327 331 328 328 329 331 328 333 330 326 329 329 324 320 316 314 312
327 7 23 325 312 313 213 144 112 118 154 84 40 40 40 35 30 17 11 9 1 355 353 348 345 341 340 339 336 326 327 326 322 324 322 324 326 322 325 330 327 328 330 327 321 315 316 315 313
353 41 9 294 275 274 249 110 140 165 206 48 34 45 40 37 24 15 11 7 2 356 352 345 342 340 339 337 333 324 326 323 322 320 318 320 323 325 328 326 330 331 329 324 318 315 315 312 309
39 333 312 306 333 309 297 104 145 150 26 21 34 42 38 33 21 16 9 6 0 354 347 343 339 337 335 335 333 331 323 322 323 322 322 322 324 325 324 327 331 332 326 321 317 318 312 312 308
290 240 329 272 233 272 300 329 105 115 47 44 41 48 44 34 24 13 7 1 353 351 346 338 337 337 335 332 328 324 322 324 326 324 323 323 322 325 327 330 332 329 323 321 317 318 317 316 310
319 338 342 309 303 265 273 288 139 137 74 64 47 52 51 40 29 14 4 353 349 347 342 337 336 337 332 329 327 324 326 327 328 328 327 326 322 325 331 331 330 328 324 318 315 316 319 317 317
Height
1523 1523 1526 1529 1532 1540 1552 1553 1548 1548 1555 1564 1563 1566 1576 1585 1591 1603 1601 1594 1591 1589 1586 1582 1579 1576 1573 1570 1568 1566 1563 1561 1559 1557 1555 1553 1551 1549 1547 1546 1545 1544 1543 1542 1542 1542 1542 1542 1542
1525 1525 1530 1532 1539 1557 1564 1560 1559 1558 1561 1565 1569 1574 1581 1591 1597 1600 1597 1594 1593 1592 1588 1583 1580 1576 1573 1571 1568 1566 1563 1561 1559 1556 1554 1552 1550 1548 1546 1545 1543 1542 1541 1540 1540 1539 1539 1538 1538
1525 1528 1534 1540 1551 1564 1570 1567 1565 1566 1567 1568 1576 1582 1590 1599 1601 1601 1598 1597 1596 1594 1589 1584 1580 1577 1574 1571 1568 1565 1563 1560 1558 1556 1553 1551 1548 1546 1544 1542 1541 1540 1539 1538 1536 1536 1535 1535 1535
1528 1532 1539 1555 1568 1573 1573 1572 1566 1567 1572 1576 1580 1591 1599 1605 1604 1603 1601 1600 1597 1594 1590 1586 1582 1578 1575 1571 1568 1565 1562 1560 1557 1554 1552 1549 1547 1544 1542 1540 1538 1537 1535 1534 1533 1533 1532 1532 1532
1532 1536 1548 1565 1573 1579 1578 1576 1574 1573 1578 1584 1584 1597 1604 1608 1607 1605 1603 1600 1597 1594 1590 1587 1583 1579 1576 1573 1570 1566 1563 1560 1557 1553 1550 1547 1545 1542 1540 1538 1536 1534 1532 1531 1530 1529 1529 1529 1528
1534 1536 1556 1570 1576 1580 1583 1583 1582 1583 1586 1588 1591 1597 1607 1610 1608 1607 1604 1601 1597 1594 1590 1587 1583 1580 1577 1573 1570 1566 1563 1560 1556 1553 1550 1547 1543 1540 1537 1535 1533 1532 1529 1528 1527 1526 1525 1525 1524
1536 1544 1558 1567 1575 1581 1586 1587 1589 1589 1590 1592 1593 1599 1608 1610 1609 1608 1605 1602 1598 1594 1590 1587 1583 1580 1577 1573 1570 1566 1562 1559 1556 1552 1549 1545 1542 1539 1535 1532 1530 1528 1526 1525 1524 1522 1522 1521 1520
1540 1546 1557 1566 1575 1585 1590 1590 1594 1594 1598 1599 1597 1603 1611 1612 1610 1608 1605 1602 1598 1594 1590 1586 1582 1579 1575 1572 1569 1565 1562 1558 1554 1550 1546 1542 1539 1536 1533 1530 1527 1524 1522 1521 1520 1518 1517 1516 1515
1543 1555 1569 1570 1577 1585 1589 1592 1598 1602 1603 1604 1606 1609 1612 1612 1609 1607 1604 1601 1597 1593 1589 1585 1581 1578 1574 1570 1567 1563 1560 1556 1552 1548 1543 1539 1535 1532 1529 1526 1523 1521 1518 1516 1514 1513 1512 1511 1511
1551 1568 1579 1577 1578 1585 1590 1594 1598 1604 1606 1608 1610 1612 1612 1610 1608 1605 1602 1599 1596 1592 1589 1585 1581 1576 1572 1568 1564 1560 1557 1554 1550 1546 1542 1537 1532 1528 1524 1522 1519 1516 1514 1511 1509 1508 1507 1507 1506
1563 1575 1583 1586 1587 1590 1594 1597 1600 1604 1610 1611 1611 1612 1612 1611 1608 1606 1604 1602 1598 1594 1590 1585 1581 1576 1571 1567 1562 1558 1555 1551 1547 1544 1540 1535 1530 1525 1521 1517 1514 1511 1509 1506 1504 1503 1502 1501 1500
1571 1579 1584 1590 1592 1594 1597 1600 1604 1606 1612 1614 1614 1613 1613 1611 1609 1607 1605 1602 1599 1594 1590 1586 1581 1576 1571 1566 1562 1558 1553 1549 1546 1543 1539 1533 1527 1523 1518 1515 1511 1508 1505 1501 1499 1498 1497 1496 1495
1576 1584 1589 1593 1595 1597 1599 1603 1605 1611 1613 1614 1614 1614 1614 1613 1611 1609 1606 1603 1599 1595 1590 1585 1580 1575 1570 1565 1561 1557 1553 1549 1546 1543 1539 1533 1527 1522 1517 1513 1509 1506 1502 1498 1495 1493 1491 1490 1490
1579 1586 1592 1596 1597 1599 1601 1605 1608 1613 1614 1615 1615 1615 1614 1613 1612 1610 1606 1603 1599 1595 1590 1585 1579 1574 1569 1564 1560 1556 1553 1548 1544 1541 1538 1532 1527 1522 1517 1512 1507 1504 1499 1496 1493 1490 1487 1485 1484
1582 1587 1593 1595 1597 1601 1602 1609 1612 1614 1614 1614 1615 1615 1615 1614 1612 1610 1607 1604 1600 1595 1590 1585 1580 1574 1569 1565 1560 1556 1552 1547 1543 1539 1535 1529 1525 1521 1516 1511 1506 1502 1497 1494 1491 1488 1485 1481 1479
1581 1585 1590 1593 1596 1599 1603 1610 1614 1614 1614 1615 1615 1616 1616 1615 1613 1611 1608 1604 1600 1595 1590 1585 1579 1573 1568 1564 1560 1555 1550 1546 1542 1537 1533 1527 1523 1519 1514 1510 1506 1500 1495 1492 1488 1485 1481 1478 1475
1577 1578 1587 1594 1594 1594 1597 1609 1612 1613 1614 1615 1615 1615 1615 1615 1613 1611 1608 1604 1599 1594 1589 1583 1578 1572 1567 1562 1557 1553 1548 1544 1540 1537 1532 1526 1522 1518 1514 1510 1505 1498 1493 1490 1487 1483 1479 1475 1471
1573 1568 1577 1591 1594 1593 1597 1607 1611 1614 1614 1614 1614 1615 1615 1614 1612 1610 1608 1603 1599 1594 1589 1583 1578 1572 1567 1561 1556 1551 1546 1542 1538 1535 1531 1526 1521 1517 1513 1508 1503 1498 1493 1489 1486 1482 1478 1473 1469
1571 1572 1580 1592 1594 1594 1599 1607 1611 1612 1613 1614 1615 1615 1614 1612 1612 1610 1607 1603 1598 1593 1587 1582 1577 1571 1566 1560 1554 1548 1543 1539 1536 1533 1529 1524 1520 1515 1511 1507 1502 1498 1494 1490 1486 1482 1477 1472 1467
1573 1577 1582 1592 1593 1593 1599 1605 1608 1610 1613 1615 1615 1613 1612 1612 1611 1609 1606 1602 1597 1592 1587 1582 1576 1571 1566 1561 1555 1549 1543 1539 1536 1531 1527 1523 1519 1514 1511 1506 1501 1497 1493 1489 1485 1481 1477 1472 1468
1577 1586 1588 1589 1593 1593 1596 1602 1606 1608 1612 1613 1613 1613 1614 1613 1611 1608 1605 1601 1597 1592 1587 1582 1576 1571 1566 1560 1554 1547 1541 1537 1532 1527 1523 1520 1516 1513 1509 1504 1500 1495 1492 1488 1484 1480 1476 1471 1467
1585 1589 1588 1586 1593 1593 1598 1599 1603 1605 1609 1611 1612 1612 1612 1611 1609 1606 1603 1599 1595 1591 1586 1580 1575 1570 1564 1559 1553 1547 1541 1536 1531 1526 1521 1517 1513 1510 1506 1502 1498 1493 1489 1485 1481 1477 1474 1470 1466
1588 1587 1586 1584 1588 1588 1590 1594 1600 1602 1606 1608 1610 1611 1610 1609 1607 1605 1602 1599 1595 1590 1584 1579 1573 1568 1563 1557 1552 1546 1541 1536 1531 1525 1520 1514 1510 1506 1503 1499 1495 1491 1487 1482 1478 1473 1470 1467 1464
1586 1582 1584 1584 1588 1591 1576 1587 1593 1601 1604 1608 1609 1609 1608 1608 1607 1605 1602 1598 1593 1588 1582 1577 1571 1566 1561 1556 1550 1545 1540 1534 1528 1523 1517 1512 1507 1503 1499 1495 1491 1487 1484 1479 1474 1470 1467 1463 1460
1587 1587 1590 1589 1590 1583 1577 1581 1600 1605 1606 1608 1608 1608 1608 1607 1605 1603 1599 1595 1590 1585 1580 1575 1569 1563 1558 1553 1548 1544 1538 1533 1527 1522 1516 1511 1505 1500 1496 1492 1487 1483 1479 1475 1470 1466 1462 1459 1456
1592 1593 1606 1610 1598 1587 1576 1587 1607 1605 1607 1607 1608 1608 1607 1605 1603 1601 1597 1593 1588 1584 1579 1573 1567 1562 1556 1551 1546 1541 1537 1531 1526 1521 1516 1510 1505 1499 1494 1489 1484 1479 1474 1470 1465 1461 1458 1454 1450
1596 1601 1601 1605 1597 1594 1578 1602 1606 1605 1605 1606 1606 1606 1605 1604 1602 1600 1596 1591 1587 1582 1577 1571 1565 1560 1555 1549 1544 1539 1534 1529 1524 1519 1514 1509 1503 1497 1491 1486 1481 1475 1470 1465 1461 1457 1453 1449 1445
1600 1600 1602 1604 1609 1606 1587 1580 1599 1604 1604 1604 1604 1604 1604 1603 1602 1599 1595 1590 1586 1581 1576 1570 1564 1558 1553 1547 1542 1537 1532 1527 1522 1516 1511 1506 1500 1495 1489 1483 1478 1472 1466 1461 1457 1453 1448 1444 1440
1600 1599 1600 1602 1603 1611 1608 1600 1600 1602 1602 1603 1604 1604 1603 1602 1600 1597 1593 1589 1585 1579 1573 1567 1561 1555 1550 1544 1539 1534 1529 1524 1519 1513 1508 1502 1497 1492 1486 1480 1474 1468 1463 1458 1453 1448 1444 1439 1436
1603 1601 1603 1610 1603 1600 1605 1604 1599 1600 1601 1602 1603 1602 1602 1601 1598 1595 1591 1587 1582 1577 1571 1565 1559 1553 1547 1541 1536 1531 1526 1520 1515 1509 1504 1498 1493 1489 1483 1477 1471 1465 1460 1454 1449 1444 1440 1436 1433